Погода в Вилюйске

Россия / Республика Саха (Якутия)     63°45′06″N   121°37′38″E
темп.,
°C
ветер,
м/с
пор.,
м/с
влажн.,
%
обл.,
%
осадки,
мм/ч
давл.,
гПа
погр.,
м
1 марта, пн
пн100:00−28з3994100 0.0 1029320
03:00−30з3794100 0.0 1029219
06:00−32зюз3793100 0.0 1029237
09:00−33зюз3894100 0.0 1029252
12:00−31зюз3693100 0.0 1029324
15:00−29зюз3592100 0.0 1028380
18:00−31зюз239599 0.0 102826
21:00−34зюз229679 0.0 102819
2 марта, вт
вт200:00−36з229942 0.0 102819
03:00−38зюз129954 0.0 102819
06:00−38зюз1210068 0.0 102718
09:00−38зюз119960 0.0 102718
12:00−32зсз019271 0.0 1027237
15:00−30ссв008983 0.0 1026340
18:00−34св119689 0.0 102619
21:00−37св119678 0.0 102719
3 марта, ср
ср300:00−38с119577 0.0 102619
03:00−39с119672 0.0 102618
06:00−40ссз119719 0.0 102618
09:00−39сз129733 0.0 102619
12:00−33сз239072 0.0 1026297
15:00−31сз249186 0.0 1025389
18:00−31сз3795100 0.0 1025417
21:00−31зсз3797100 0.1 1024372
4 марта, чт
чт400:00−31зсз3897100 0.2 1023379
03:00−30зсз4996100 0.4 1023492
06:00−30зсз4994100 0.2 1022551
09:00−31зсз41092100 0.2 1022602
12:00−29зсз4892100 0.1 1023722
15:00−28сз4889100 0.1 1023891
18:00−28сз3794100 0.1 1025896
21:00−29сз2796100 0.2 1027424
5 марта, пт
пт500:00−33зсз239899 0.0 102762
03:00−35зсз359684 0.0 102996
06:00−37зсз369640 0.0 1030111
09:00−36з379522 0.0 1031211
12:00−31зсз369361 0.0 1031412
15:00−28з479381 0.0 1031505
18:00−29з2396100 0.0 103175
21:00−32з239888 0.0 103133